Location: Aragoneses
(41.0275°N, 4.3847°W)
Time: 02:00:17
(UTC+00:00)

COSMO-SKYMED 1 - Pass Details

Date: 11 December 2025
Orbit: 578 x 580 km, 97.9° (Epoch: 14 January)

Event Time Altitude Azimuth Distance (km) Brightness Sun altitude
Exits shadow 19:28:49 26° 313° (NW) 1,148 4.2 -29.2°
Maximum altitude 19:29:40 29° 291° (WNW) 1,084 4.3 -29.4°
Drops below altitude 10° 19:33:12 10° 231° (SW) 1,888 5.7 -30.0°
Sets 19:35:33 0° 220° (SW) 2,782 6.5 -30.5°
